This is the latest recevied weather packets stored in our database for station/object KC5EZZ-2. If no packets are shown the sender has not sent any weather packets the latest 10 day(s).
| Time | Temp. | Humidity | Pressure | Rain* | Wind** | Luminosity | Snow |
|---|---|---|---|---|---|---|---|
| 1777590739 | 16.11° C | - | - | 0 mm | 3.13 m/s, 7° | - | - |
| 1777590439 | 16.11° C | - | - | 0 mm | 3.58 m/s, 342° | - | - |
| 1777590136 | 16.11° C | - | - | 0 mm | 4.47 m/s, 8° | - | - |
| 1777589836 | 16.11° C | - | - | 0 mm | 3.13 m/s, 3° | - | - |
| 1777589537 | 16.11° C | - | - | 0 mm | 4.47 m/s, 347° | - | - |
| 1777589234 | 16.11° C | - | - | 0 mm | 4.92 m/s, 6° | - | - |
| 1777588935 | 16.11° C | - | - | 0 mm | 3.58 m/s, 27° | - | - |
| 1777588769 | 16.11° C | - | - | 0 mm | 3.58 m/s, 13° | - | - |
| 1777588635 | 16.11° C | - | - | 0 mm | 3.58 m/s, 13° | - | - |
| 1777588621 | 16.11° C | - | - | 0 mm | 3.58 m/s, 359° | - | - |
| 1777588333 | 16.11° C | - | - | 0 mm | 3.58 m/s, 359° | - | - |
| 1777588034 | 16.11° C | - | - | 0 mm | 2.68 m/s, 18° | - | - |
| 1777587734 | 16.11° C | - | - | 0 mm | 2.68 m/s, 350° | - | - |
| 1777587432 | 15.56° C | - | - | 0 mm | 3.13 m/s, 353° | - | - |
| 1777586833 | 15° C | - | - | 0 mm | 3.58 m/s, 353° | - | - |
| 1777586530 | 15° C | - | - | 0 mm | 4.02 m/s, 350° | - | - |
| 1777586231 | 15.56° C | - | - | 0 mm | 3.13 m/s, 6° | - | - |
| 1777585932 | 15° C | - | - | 0 mm | 4.47 m/s, 345° | - | - |
| 1777585701 | 15° C | - | - | 0 mm | 4.47 m/s, 319° | - | - |
| 1777585629 | 15° C | - | - | 0 mm | 4.47 m/s, 319° | - | - |
| 1777585558 | 15° C | - | - | 0 mm | 4.47 m/s, 343° | - | - |
| 1777585330 | 15° C | - | - | 0 mm | 4.47 m/s, 343° | - | - |
| 1777585030 | 15° C | - | - | 0 mm | 4.47 m/s, 357° | - | - |
| 1777584728 | 15° C | - | - | 0 mm | 4.02 m/s, 345° | - | - |
| 1777584429 | 15° C | - | - | 0 mm | 4.47 m/s, 347° | - | - |
* Rain latest hour (hover to see other rain measurements)
** Current wind speed in m/s (hover to see current wind gust speed)